Weather in Russkiy Lundan

Russia / Republic of Mordovia     53°50′03″N   42°53′28″E
temp.,
°C
wind,
m/s
gust,
m/s
humid.,
%
clouds,
%
prec.,
mm/h
press.,
hPa
HPBL,
m
28 september, tue
tue2800:00+5ne5889100 0.1 1020778
03:00+5nne5796100 0.1 1021792
06:00+5ne6989100 0.1 1023835
09:00+5ne6984100 0.1 1025801
12:00+5ene6875100 0.0 1027914
15:00+7ene476691 0.1 10281196
18:00+5ne3570100 0.0 102987
21:00+4nne37735 0.0 1030124
29 september, wed
wed2900:00+3nne357888 0.0 1031101
03:00+2nne367980 0.0 1032119
06:00+1nne368450 0.0 1033134
09:00+6nne46655 0.0 1033430
12:00+9ne455091 0.0 10331092
15:00+10nne444662 0.0 10321298
18:00+7nne225935 0.0 103219
21:00+5nne22676 0.0 103328
30 september, thu
thu3000:00+4nne227040 0.0 103316
03:00+3nne22735 0.0 103420
06:00+2nne22795 0.0 103428
09:00+7nne236420 0.0 1035275
12:00+10nne225458 0.0 1034728
15:00+11n33535 0.0 10341019
18:00+8n226918 0.0 103415
21:00+7nnw228012 0.0 103414
1 october, fri
fri100:00+6wnw11895 0.0 103510
03:00+6wnw238988 0.0 103563
06:00+6wnw249098 0.0 1035107
09:00+9nw357631 0.0 1034267
12:00+13nw3466100 0.0 1034742
15:00+14nw346480 0.0 1033939
18:00+11nw3577100 0.0 1033118
21:00+11nw2478100 0.0 103497
2 october, sat
sat200:00+11nw2379100 0.0 103479
03:00+10nw2380100 0.0 103487
06:00+10nw2381100 0.0 103485
09:00+11nnw2376100 0.0 1034211
12:00+13nw226698 0.0 1034523
15:00+14w1262100 0.0 1034715
18:00+12wsw2270100 0.0 103442
21:00+12sw1171100 0.0 103422